Regional Weather Roundup
Issued by NWS Sioux Falls, SD

Home | Current Version | Previous Version | Graphics & Text | Print | Product List | Glossary On
Versions: 1 2 3 4 5 6 7 8 9 10 11 12 13 14 15 16 17 18 19 20 21 22 23 24 25 26 27 28 29 30 31 32 33 34 35 36 37 38 39 40 41 42 43 44 45 46 47 48 49 50
000
ASUS43 KFSD 041102
RWRFSD

WEATHER ROUNDUP FOR SE SOUTH DAKOTA/SW MINNESOTA/NW IOWA
NATIONAL WEATHER SERVICE SIOUX FALLS SD
600 AM CDT MON MAY 04 2015

NOTE: "FAIR" INDICATES FEW OR NO CLOUDS BELOW 12,000 FEET WITH NO
SIGNIFICANT WEATHER AND OR OBSTRUCTIONS TO VISIBILITY.


SDZ038>040-050-052>070-041200-
SOUTHEAST SOUTH DAKOTA

CITY           SKY/WX    TMP DP  RH WIND       PRES   REMARKS
BROOKINGS      CLEAR     43  27  52 N7        30.14R
CHAMBERLAIN    NOT AVBL
HURON          CLEAR     33  24  69 CALM      30.15R
MADISON        FAIR      37  25  60 N14       30.12R
MITCHELL       CLEAR     40  31  70 NW3       30.13R
SIOUX FALLS    PTCLDY    49  28  44 N12       30.09R
WINNER         FAIR      47  26  44 CALM      30.12R
YANKTON        CLEAR     52  28  40 N15       30.07S
$$

MNZ071-072-080-081-089-090-097-098-041200-
SOUTHWEST MINNESOTA

CITY           SKY/WX    TMP DP  RH WIND       PRES   REMARKS
FAIRMONT       MOCLDY    50  30  46 N13       30.05R
JACKSON        MOCLDY    50  28  43 VRB8      30.07R
LUVERNE        CLEAR     50  27  40 N9G16     30.09R
MARSHALL       CLEAR     39  25  56 NW9       30.12R
MONTEVIDEO     CLEAR     41  28  60 NW3       30.14R
REDWOOD FALLS  CLEAR     48  30  49 N7        30.10R
TRACY          CLEAR     47  28  47 NW9       30.11R
WORTHINGTON    PTCLDY    45  27  49 N12       30.09R
$$

IAZ001>003-012>014-020>022-031-032-NEZ013-014-SDZ071-041200-
NORTHWEST IOWA

CITY           SKY/WX    TMP DP  RH WIND       PRES   REMARKS
DENISON        MOCLDY    57  48  72 NE13G20   29.99R
ESTHERVILLE    MOCLDY    49  32  52 N12       30.05R
SIOUX CITY     LGT RAIN  57  35  43 N13       30.02F
SPENCER        MOCLDY    51  34  52 N14       30.05R
$$

ABBREVIATIONS USED IN REMARKS
   TC - TEMPERATURE IN CELSIUS
  WCI - WIND CHILL INDEX
   HX - HEAT INDEX
  VSB - VISIBILITY




USA.gov is the U.S. government's official web portal to all federal, state and local government web resources and services.